Orbital elements:
2012 AW Earth MOID = 0.1190 AU
Epoch 2012 Mar. 14.0 TT = JDT 2456000.5 MPC
M 323.84537 (2000.0) P Q
n 0.78635947 Peri. 140.70754 -0.70120351 +0.67181202
a 1.1624884 Node 83.26754 -0.69959584 -0.58382126
e 0.2888497 Incl. 13.90820 -0.13740197 -0.45587428
P 1.25 H 21.9 G 0.15 U 8